EXS81CG EGBB-LEGE

Flight info

Callsign EXS81CG
Flight time 1h 38m
Altitude 39000
Route ADMEX Y321 CPT UN859 SOPIL DCT BALAN DCT EVPOK DCT NARAK DCT GAI DCT PPG A27 KANIG
Aircraft B752/M-SDE2E3FGHIJ3J4J7RWXY/LB1

Departure

Time 2026-04-27 11:49
Airport Birmingham Airport (EGBB)

Arrival

Time 2026-04-27 13:27
Airport Girona-Costa Brava Airport (LEGE)
Time Latitude Longitude Altitude Speed Heading
2026-04-27 11:25 52.44870 -1.73436 349 ft 0 kts 108°
2026-04-27 11:41 52.44871 -1.73440 349 ft 2 kts 108°
2026-04-27 11:41 52.44876 -1.73464 347 ft 2 kts 113°
2026-04-27 11:41 52.44886 -1.73483 346 ft 2 kts 149°
2026-04-27 11:42 52.44900 -1.73491 345 ft 2 kts 177°
2026-04-27 11:42 52.44915 -1.73487 345 ft 2 kts 206°
2026-04-27 11:42 52.44927 -1.73472 346 ft 2 kts 234°
2026-04-27 11:42 52.44931 -1.73460 347 ft 1 kts 249°
2026-04-27 11:43 52.44933 -1.73451 347 ft 0 kts 251°
2026-04-27 11:45 52.44928 -1.73474 346 ft 5 kts 247°
2026-04-27 11:45 52.44884 -1.73590 340 ft 11 kts 235°
2026-04-27 11:45 52.44821 -1.73687 336 ft 13 kts 202°
2026-04-27 11:46 52.44741 -1.73725 337 ft 10 kts 184°
2026-04-27 11:46 52.44684 -1.73697 339 ft 6 kts 147°
2026-04-27 11:46 52.44653 -1.73664 340 ft 4 kts 146°
2026-04-27 11:46 52.44629 -1.73638 341 ft 4 kts 146°
2026-04-27 11:47 52.44594 -1.73600 344 ft 7 kts 145°
2026-04-27 11:47 52.44536 -1.73535 347 ft 14 kts 146°
2026-04-27 11:47 52.44428 -1.73422 352 ft 20 kts 161°
2026-04-27 11:47 52.44340 -1.73514 349 ft 17 kts 235°
2026-04-27 11:48 52.44365 -1.73669 345 ft 16 kts 325°
2026-04-27 11:48 52.44527 -1.73848 339 ft 49 kts 326°
2026-04-27 11:48 52.45032 -1.74409 335 ft 125 kts 326°
2026-04-27 11:48 52.45940 -1.75402 534 ft 178 kts 328°
2026-04-27 11:49 52.46932 -1.76462 1646 ft 170 kts 328°
2026-04-27 11:49 52.47943 -1.77602 1975 ft 190 kts 326°
2026-04-27 11:49 52.49102 -1.78901 2258 ft 215 kts 330°
2026-04-27 11:49 52.50535 -1.79416 3041 ft 220 kts
2026-04-27 11:50 52.51955 -1.78484 3822 ft 229 kts 39°
2026-04-27 11:50 52.52871 -1.76325 4413 ft 249 kts 68°
2026-04-27 11:50 52.53098 -1.73527 5285 ft 251 kts 86°
2026-04-27 11:50 52.53039 -1.70590 5935 ft 262 kts 94°
2026-04-27 11:51 52.52545 -1.67608 6266 ft 285 kts 118°
2026-04-27 11:51 52.51347 -1.64945 6338 ft 289 kts 133°
2026-04-27 11:51 52.48594 -1.60229 7531 ft 289 kts 137°
2026-04-27 11:52 52.47185 -1.57896 8404 ft 289 kts 138°
2026-04-27 11:52 52.45674 -1.55749 9142 ft 290 kts 151°
2026-04-27 11:52 52.43958 -1.54023 9950 ft 290 kts 154°
2026-04-27 11:52 52.42224 -1.52304 10656 ft 297 kts 155°
2026-04-27 11:53 52.40375 -1.50490 10746 ft 327 kts 154°
2026-04-27 11:53 52.38348 -1.48494 10961 ft 353 kts 154°
2026-04-27 11:53 52.36131 -1.46630 11535 ft 358 kts 166°
2026-04-27 11:53 52.33764 -1.45683 12447 ft 355 kts 175°
2026-04-27 11:54 52.31329 -1.44952 13289 ft 359 kts 175°
2026-04-27 11:54 52.28881 -1.44227 14117 ft 363 kts 176°
2026-04-27 11:54 52.26371 -1.43501 14948 ft 367 kts 176°
2026-04-27 11:54 52.23875 -1.42786 15745 ft 370 kts 177°
2026-04-27 11:55 52.21354 -1.42068 16520 ft 374 kts 177°
2026-04-27 11:55 52.18775 -1.41337 17283 ft 377 kts 178°
2026-04-27 11:55 52.16174 -1.40602 18022 ft 381 kts 178°
2026-04-27 11:55 52.13591 -1.39873 18733 ft 384 kts 178°
2026-04-27 11:56 52.10964 -1.39133 19432 ft 388 kts 179°
2026-04-27 11:56 52.08292 -1.38381 20119 ft 391 kts 179°
2026-04-27 11:56 52.05621 -1.37630 20782 ft 394 kts 179°
2026-04-27 11:56 52.02894 -1.36865 21434 ft 397 kts 179°
2026-04-27 11:57 52.00191 -1.36108 22057 ft 400 kts 179°
2026-04-27 11:57 51.97437 -1.35336 22669 ft 403 kts 180°
2026-04-27 11:57 51.94658 -1.34559 23301 ft 405 kts 181°
2026-04-27 11:57 51.91917 -1.33794 23831 ft 409 kts 181°
2026-04-27 11:58 51.89108 -1.33011 24395 ft 411 kts 181°
2026-04-27 11:58 51.86283 -1.32224 24927 ft 414 kts 181°
2026-04-27 11:58 51.83445 -1.31434 25451 ft 417 kts 181°
2026-04-27 11:58 51.80608 -1.30646 25957 ft 419 kts 181°
2026-04-27 11:59 51.77737 -1.29849 26450 ft 422 kts 182°
2026-04-27 11:59 51.74820 -1.29041 26934 ft 424 kts 182°
2026-04-27 11:59 51.71919 -1.28238 27400 ft 427 kts 182°
2026-04-27 11:59 51.68986 -1.27427 27854 ft 429 kts 182°
2026-04-27 12:00 51.66053 -1.26617 28293 ft 432 kts 182°
2026-04-27 12:00 51.63119 -1.25809 28716 ft 434 kts 182°
2026-04-27 12:00 51.60127 -1.24985 29133 ft 436 kts 182°
2026-04-27 12:00 51.57154 -1.24167 29534 ft 438 kts 182°
2026-04-27 12:01 51.54140 -1.23340 29927 ft 441 kts 182°
2026-04-27 12:01 51.51119 -1.22482 30306 ft 446 kts 180°
2026-04-27 12:01 51.48098 -1.21062 30660 ft 464 kts 172°
2026-04-27 12:01 51.45116 -1.18975 31003 ft 474 kts 168°
2026-04-27 12:02 51.42108 -1.16759 31315 ft 477 kts 168°
2026-04-27 12:02 51.39127 -1.14573 31664 ft 478 kts 168°
2026-04-27 12:02 51.36096 -1.12346 32117 ft 477 kts 169°
2026-04-27 12:02 51.33079 -1.10133 32533 ft 477 kts 169°
2026-04-27 12:03 51.30094 -1.07947 32935 ft 477 kts 169°
2026-04-27 12:03 51.27070 -1.05735 33327 ft 476 kts 169°
2026-04-27 12:03 51.24071 -1.03546 33700 ft 476 kts 170°
2026-04-27 12:03 51.21100 -1.01379 34055 ft 476 kts 170°
2026-04-27 12:04 51.18056 -0.99164 34397 ft 476 kts 170°
2026-04-27 12:04 51.15052 -0.96980 34723 ft 476 kts 170°
2026-04-27 12:04 51.12075 -0.94819 35042 ft 476 kts 171°
2026-04-27 12:04 51.09061 -0.92633 35396 ft 475 kts 171°
2026-04-27 12:05 51.06080 -0.90475 35718 ft 474 kts 171°
2026-04-27 12:05 51.03072 -0.88300 36018 ft 474 kts 170°
2026-04-27 12:05 51.00101 -0.86158 36267 ft 474 kts 170°
2026-04-27 12:05 50.97118 -0.84011 36488 ft 474 kts 169°
2026-04-27 12:06 50.94118 -0.81852 36696 ft 474 kts 169°
2026-04-27 12:06 50.91117 -0.79696 36892 ft 475 kts 168°
2026-04-27 12:06 50.88127 -0.77549 37082 ft 475 kts 168°
2026-04-27 12:06 50.85131 -0.75175 37264 ft 485 kts 161°
2026-04-27 12:07 50.82269 -0.72326 37436 ft 490 kts 159°
2026-04-27 12:07 50.79403 -0.69412 37607 ft 490 kts 159°
2026-04-27 12:07 50.76567 -0.66536 37764 ft 490 kts 159°
2026-04-27 12:07 50.73695 -0.63623 37914 ft 490 kts 159°
2026-04-27 12:08 50.70857 -0.60747 38053 ft 490 kts 159°
2026-04-27 12:08 50.67957 -0.57811 38186 ft 490 kts 159°
2026-04-27 12:08 50.65087 -0.54909 38311 ft 490 kts 159°
2026-04-27 12:08 50.62235 -0.52029 38426 ft 490 kts 159°
2026-04-27 12:09 50.59378 -0.49148 38536 ft 490 kts 159°
2026-04-27 12:09 50.56511 -0.46260 38640 ft 490 kts 159°
2026-04-27 12:09 50.53646 -0.43379 38738 ft 490 kts 159°
2026-04-27 12:10 50.47921 -0.37635 38917 ft 490 kts 159°
2026-04-27 12:10 50.42219 -0.31927 39129 ft 488 kts 160°
2026-04-27 12:11 50.36487 -0.26210 39197 ft 489 kts 160°
2026-04-27 12:11 50.30764 -0.20518 39197 ft 489 kts 160°
2026-04-27 12:12 50.25048 -0.14849 39183 ft 489 kts 160°
2026-04-27 12:12 50.19310 -0.09174 39170 ft 489 kts 160°
2026-04-27 12:13 50.13591 -0.03535 39162 ft 489 kts 160°
2026-04-27 12:13 50.10658 -0.01042 39165 ft 474 kts 168°
2026-04-27 12:13 50.07588 0.00697 39176 ft 459 kts 176°
2026-04-27 12:14 50.01508 0.03257 39171 ft 456 kts 178°
2026-04-27 12:14 49.95371 0.05734 39163 ft 456 kts 178°
2026-04-27 12:15 49.89223 0.08168 39156 ft 456 kts 178°
2026-04-27 12:15 49.83116 0.10566 39170 ft 456 kts 178°
2026-04-27 12:16 49.76979 0.12966 39184 ft 456 kts 178°
2026-04-27 12:16 49.70824 0.15363 39197 ft 457 kts 178°
2026-04-27 12:17 49.64673 0.17808 39214 ft 458 kts 178°
2026-04-27 12:17 49.58565 0.20271 39230 ft 458 kts 178°
2026-04-27 12:18 49.52405 0.22748 39245 ft 458 kts 178°
2026-04-27 12:18 49.46256 0.25213 39247 ft 457 kts 178°
2026-04-27 12:19 49.40131 0.27662 39240 ft 457 kts 178°
2026-04-27 12:19 49.34010 0.30103 39240 ft 457 kts 178°
2026-04-27 12:20 49.27861 0.32624 39240 ft 459 kts 176°
2026-04-27 12:20 49.21768 0.35198 39240 ft 459 kts 177°
2026-04-27 12:21 49.15589 0.37798 39240 ft 459 kts 177°
2026-04-27 12:21 49.09462 0.40368 39238 ft 459 kts 176°
2026-04-27 12:22 49.03326 0.42930 39239 ft 460 kts 175°
2026-04-27 12:22 48.97162 0.45501 39239 ft 461 kts 174°
2026-04-27 12:23 48.90991 0.48074 39241 ft 463 kts 173°
2026-04-27 12:23 48.84766 0.50662 39244 ft 464 kts 173°
2026-04-27 12:24 48.78543 0.53231 39243 ft 465 kts 174°
2026-04-27 12:24 48.72301 0.55682 39230 ft 466 kts 174°
2026-04-27 12:25 48.66056 0.58129 39219 ft 468 kts 174°
2026-04-27 12:25 48.59758 0.60589 39217 ft 469 kts 174°
2026-04-27 12:26 48.53421 0.63060 39223 ft 470 kts 174°
2026-04-27 12:26 48.47154 0.65590 39221 ft 471 kts 174°
2026-04-27 12:27 48.40832 0.68161 39207 ft 470 kts 174°
2026-04-27 12:27 48.34570 0.70700 39191 ft 470 kts 174°
2026-04-27 12:28 48.28258 0.73252 39179 ft 470 kts 174°
2026-04-27 12:28 48.21972 0.75760 39182 ft 469 kts 174°
2026-04-27 12:29 48.15669 0.78240 39179 ft 470 kts 174°
2026-04-27 12:29 48.09385 0.80708 39178 ft 470 kts 174°
2026-04-27 12:30 48.03053 0.83188 39179 ft 470 kts 174°
2026-04-27 12:30 47.96763 0.85645 39179 ft 470 kts 174°
2026-04-27 12:31 47.90484 0.88093 39179 ft 470 kts 174°
2026-04-27 12:31 47.84159 0.90552 39181 ft 470 kts 174°
2026-04-27 12:32 47.77825 0.93008 39182 ft 470 kts 174°
2026-04-27 12:32 47.71542 0.95438 39182 ft 470 kts 174°
2026-04-27 12:33 47.65204 0.97883 39182 ft 471 kts 174°
2026-04-27 12:33 47.58900 1.00309 39182 ft 471 kts 174°
2026-04-27 12:34 47.52571 1.02739 39182 ft 471 kts 174°
2026-04-27 12:34 47.46243 1.05161 39182 ft 471 kts 174°
2026-04-27 12:35 47.39938 1.06250 39191 ft 453 kts 188°
2026-04-27 12:35 47.33632 1.06176 39182 ft 453 kts 189°
2026-04-27 12:36 47.27342 1.06060 39178 ft 454 kts 189°
2026-04-27 12:36 47.21081 1.05925 39173 ft 453 kts 189°
2026-04-27 12:37 47.14767 1.05781 39171 ft 453 kts 189°
2026-04-27 12:37 47.08469 1.05636 39171 ft 453 kts 189°
2026-04-27 12:38 47.02198 1.05483 39171 ft 453 kts 189°
2026-04-27 12:38 46.95957 1.05215 39171 ft 453 kts 189°
2026-04-27 12:39 46.89640 1.04944 39171 ft 453 kts 189°
2026-04-27 12:39 46.83375 1.04677 39171 ft 453 kts 189°
2026-04-27 12:40 46.77115 1.04411 39164 ft 453 kts 189°
2026-04-27 12:40 46.70793 1.04143 39156 ft 453 kts 189°
2026-04-27 12:41 46.64509 1.03877 39155 ft 453 kts 189°
2026-04-27 12:41 46.58275 1.03614 39156 ft 452 kts 189°
2026-04-27 12:42 46.51982 1.03569 39160 ft 460 kts 182°
2026-04-27 12:42 46.45612 1.05392 39155 ft 469 kts 175°
2026-04-27 12:43 46.39297 1.07472 39155 ft 470 kts 175°
2026-04-27 12:43 46.32951 1.09578 39156 ft 471 kts 175°
2026-04-27 12:44 46.26568 1.11698 39156 ft 472 kts 175°
2026-04-27 12:44 46.20150 1.13828 39157 ft 473 kts 175°
2026-04-27 12:45 46.13756 1.15945 39156 ft 474 kts 175°
2026-04-27 12:45 46.07374 1.18054 39157 ft 475 kts 175°
2026-04-27 12:46 46.00948 1.20172 39158 ft 476 kts 175°
2026-04-27 12:46 45.94510 1.22289 39158 ft 477 kts 175°
2026-04-27 12:47 45.88046 1.24410 39158 ft 477 kts 175°
2026-04-27 12:47 45.81571 1.26529 39158 ft 477 kts 175°
2026-04-27 12:48 45.75137 1.28630 39158 ft 477 kts 175°
2026-04-27 12:48 45.68673 1.30735 39159 ft 477 kts 175°
2026-04-27 12:49 45.62228 1.32830 39160 ft 477 kts 175°
2026-04-27 12:49 45.55777 1.34921 39157 ft 477 kts 175°
2026-04-27 12:50 45.49321 1.37009 39150 ft 478 kts 175°
2026-04-27 12:50 45.42864 1.39093 39140 ft 477 kts 175°
2026-04-27 12:51 45.36396 1.41175 39136 ft 477 kts 175°
2026-04-27 12:51 45.29963 1.43241 39134 ft 478 kts 175°
2026-04-27 12:52 45.23510 1.45309 39134 ft 477 kts 175°
2026-04-27 12:52 45.17017 1.47384 39134 ft 478 kts 175°
2026-04-27 12:53 45.07305 1.50479 39134 ft 479 kts 175°
2026-04-27 12:53 45.00854 1.52527 39135 ft 480 kts 175°
2026-04-27 12:54 44.94340 1.54592 39135 ft 482 kts 174°
2026-04-27 12:54 44.87800 1.56663 39134 ft 483 kts 174°
2026-04-27 12:55 44.81258 1.58728 39135 ft 484 kts 174°
2026-04-27 12:55 44.74713 1.60789 39135 ft 483 kts 174°
2026-04-27 12:56 44.68171 1.62845 39136 ft 483 kts 174°
2026-04-27 12:56 44.61667 1.64884 39135 ft 483 kts 174°
2026-04-27 12:57 44.55119 1.66932 39123 ft 482 kts 175°
2026-04-27 12:57 44.48609 1.68962 39124 ft 482 kts 175°
2026-04-27 12:58 44.42080 1.70994 39127 ft 482 kts 175°
2026-04-27 12:58 44.35551 1.73021 39130 ft 483 kts 175°
2026-04-27 12:59 44.29034 1.75015 39132 ft 480 kts 177°
2026-04-27 12:59 44.22459 1.76469 39135 ft 479 kts 179°
2026-04-27 13:00 44.15923 1.77905 39137 ft 479 kts 179°
2026-04-27 13:00 44.09467 1.79336 39022 ft 459 kts 179°
2026-04-27 13:01 44.06373 1.80016 38542 ft 454 kts 179°
2026-04-27 13:01 44.03265 1.80697 38003 ft 451 kts 179°
2026-04-27 13:01 44.00161 1.81377 37396 ft 450 kts 179°
2026-04-27 13:01 43.97100 1.82287 36766 ft 458 kts 171°
2026-04-27 13:02 43.94118 1.83883 36145 ft 466 kts 161°
2026-04-27 13:02 43.91302 1.86111 35606 ft 470 kts 154°
2026-04-27 13:02 43.88556 1.88524 35060 ft 472 kts 154°
2026-04-27 13:02 43.85767 1.90971 34501 ft 476 kts 154°
2026-04-27 13:03 43.82984 1.93421 33940 ft 477 kts 154°
2026-04-27 13:03 43.80170 1.95900 33372 ft 478 kts 154°
2026-04-27 13:03 43.77362 1.98371 32809 ft 479 kts 154°
2026-04-27 13:03 43.74575 2.00825 32250 ft 479 kts 154°
2026-04-27 13:04 43.71791 2.03273 31693 ft 480 kts 153°
2026-04-27 13:04 43.68969 2.05751 31132 ft 482 kts 153°
2026-04-27 13:04 43.66134 2.08240 30568 ft 482 kts 153°
2026-04-27 13:04 43.63325 2.10702 30011 ft 484 kts 153°
2026-04-27 13:05 43.60484 2.13190 29448 ft 483 kts 153°
2026-04-27 13:05 43.57671 2.15652 28887 ft 478 kts 153°
2026-04-27 13:05 43.54872 2.18099 28331 ft 473 kts 153°
2026-04-27 13:05 43.52120 2.20501 27787 ft 469 kts 153°
2026-04-27 13:06 43.49389 2.22882 27248 ft 465 kts 153°
2026-04-27 13:06 43.46699 2.25224 26718 ft 462 kts 153°
2026-04-27 13:06 43.43975 2.27593 26181 ft 458 kts 153°
2026-04-27 13:06 43.41309 2.29910 25656 ft 455 kts 153°
2026-04-27 13:07 43.38646 2.32222 25131 ft 451 kts 153°
2026-04-27 13:07 43.36002 2.34514 24610 ft 447 kts 153°
2026-04-27 13:07 43.33391 2.36776 24096 ft 444 kts 153°
2026-04-27 13:07 43.30795 2.39022 23586 ft 441 kts 152°
2026-04-27 13:08 43.28201 2.41265 23078 ft 437 kts 152°
2026-04-27 13:08 43.25648 2.43469 22578 ft 434 kts 152°
2026-04-27 13:08 43.23131 2.45640 22086 ft 431 kts 152°
2026-04-27 13:08 43.20600 2.47822 21592 ft 427 kts 152°
2026-04-27 13:09 43.18087 2.49985 21103 ft 424 kts 152°
2026-04-27 13:09 43.15615 2.52111 20622 ft 421 kts 152°
2026-04-27 13:09 43.13140 2.54238 20141 ft 418 kts 152°
2026-04-27 13:09 43.10699 2.56334 19668 ft 415 kts 152°
2026-04-27 13:10 43.08270 2.58418 19198 ft 411 kts 152°
2026-04-27 13:10 43.05872 2.60472 18735 ft 408 kts 152°
2026-04-27 13:10 43.03479 2.62521 18274 ft 405 kts 152°
2026-04-27 13:10 43.01129 2.64529 17822 ft 400 kts 152°
2026-04-27 13:11 42.98757 2.66556 17356 ft 395 kts 152°
2026-04-27 13:11 42.96452 2.68523 16903 ft 390 kts 152°
2026-04-27 13:11 42.94161 2.70477 16454 ft 385 kts 151°
2026-04-27 13:11 42.91909 2.72395 16016 ft 380 kts 151°
2026-04-27 13:12 42.89686 2.74288 15585 ft 375 kts 150°
2026-04-27 13:12 42.87468 2.76174 15155 ft 370 kts 150°
2026-04-27 13:12 42.85314 2.78006 14740 ft 367 kts 150°
2026-04-27 13:12 42.83202 2.79800 14335 ft 366 kts 150°
2026-04-27 13:13 42.81058 2.81620 13922 ft 363 kts 150°
2026-04-27 13:13 42.78930 2.83425 13513 ft 360 kts 150°
2026-04-27 13:13 42.76797 2.85232 13103 ft 358 kts 150°
2026-04-27 13:13 42.74621 2.86796 12701 ft 354 kts 161°
2026-04-27 13:14 42.72311 2.87854 12333 ft 351 kts 164°
2026-04-27 13:14 42.69994 2.88869 11964 ft 349 kts 164°
2026-04-27 13:14 42.67677 2.89878 11597 ft 349 kts 164°
2026-04-27 13:14 42.65380 2.90872 11231 ft 348 kts 164°
2026-04-27 13:15 42.63063 2.91870 10863 ft 348 kts 164°
2026-04-27 13:15 42.60769 2.92856 10499 ft 347 kts 164°
2026-04-27 13:15 42.58519 2.93824 10408 ft 333 kts 164°
2026-04-27 13:15 42.56337 2.94762 10394 ft 317 kts 164°
2026-04-27 13:16 42.54296 2.95638 10381 ft 302 kts 164°
2026-04-27 13:16 42.52293 2.96494 10087 ft 299 kts 164°
2026-04-27 13:16 42.50317 2.97338 9813 ft 295 kts 163°
2026-04-27 13:16 42.48360 2.97929 9630 ft 287 kts 181°
2026-04-27 13:17 42.46388 2.97559 9354 ft 288 kts 196°
2026-04-27 13:17 42.44445 2.96855 8971 ft 288 kts 197°
2026-04-27 13:17 42.42505 2.96136 8604 ft 289 kts 197°
2026-04-27 13:17 42.40573 2.95404 8206 ft 290 kts 197°
2026-04-27 13:18 42.38627 2.94661 7822 ft 291 kts 197°
2026-04-27 13:18 42.36688 2.93913 7429 ft 292 kts 197°
2026-04-27 13:18 42.34731 2.93157 7215 ft 284 kts 196°
2026-04-27 13:18 42.32894 2.92452 7190 ft 264 kts 197°
2026-04-27 13:19 42.31116 2.91766 6776 ft 271 kts 197°
2026-04-27 13:19 42.29295 2.91061 6433 ft 269 kts 197°
2026-04-27 13:19 42.27519 2.90377 6191 ft 266 kts 197°
2026-04-27 13:19 42.25729 2.89687 5696 ft 271 kts 197°
2026-04-27 13:20 42.23943 2.89000 5566 ft 263 kts 198°
2026-04-27 13:20 42.22163 2.88313 5101 ft 269 kts 197°
2026-04-27 13:20 42.20399 2.87627 4939 ft 263 kts 198°
2026-04-27 13:20 42.18614 2.86935 4451 ft 268 kts 197°
2026-04-27 13:21 42.16855 2.86255 4399 ft 255 kts 197°
2026-04-27 13:21 42.15197 2.85622 4381 ft 242 kts 198°
2026-04-27 13:21 42.13582 2.85004 4051 ft 244 kts 197°
2026-04-27 13:21 42.11969 2.84384 3886 ft 238 kts 197°
2026-04-27 13:22 42.10419 2.83793 3893 ft 224 kts 195°
2026-04-27 13:22 42.08978 2.83242 3864 ft 212 kts 196°
2026-04-27 13:22 42.07525 2.82688 3451 ft 220 kts 197°
2026-04-27 13:22 42.06032 2.82118 3080 ft 224 kts 197°
2026-04-27 13:23 42.04569 2.81562 3036 ft 211 kts 197°
2026-04-27 13:23 42.03194 2.81037 2866 ft 204 kts 197°
2026-04-27 13:23 42.01841 2.80520 2619 ft 197 kts 196°
2026-04-27 13:23 42.00583 2.80041 2365 ft 178 kts 196°
2026-04-27 13:24 41.99437 2.79608 2134 ft 161 kts 197°
2026-04-27 13:24 41.98416 2.79218 1913 ft 143 kts 196°
2026-04-27 13:24 41.97507 2.78873 1730 ft 130 kts 197°
2026-04-27 13:24 41.96640 2.78542 1559 ft 130 kts 195°
2026-04-27 13:25 41.95766 2.78210 1383 ft 129 kts 197°
2026-04-27 13:25 41.94908 2.77886 1213 ft 127 kts 195°
2026-04-27 13:25 41.94054 2.77559 1033 ft 133 kts 195°
2026-04-27 13:25 41.93176 2.77210 871 ft 129 kts 197°
2026-04-27 13:26 41.92283 2.76865 704 ft 132 kts 195°
2026-04-27 13:26 41.91416 2.76541 514 ft 125 kts 195°
2026-04-27 13:26 41.90647 2.76262 476 ft 96 kts 197°
2026-04-27 13:26 41.90178 2.76085 476 ft 53 kts 195°
2026-04-27 13:27 41.89848 2.75949 475 ft 41 kts 198°
2026-04-27 13:27 41.89616 2.75862 476 ft 25 kts 194°
2026-04-27 13:27 41.89517 2.75879 476 ft 9 kts 121°
2026-04-27 13:27 41.89525 2.75944 475 ft 6 kts 65°
2026-04-27 13:28 41.89544 2.75997 475 ft 6 kts 63°
2026-04-27 13:28 41.89565 2.76046 475 ft 5 kts 57°
2026-04-27 13:28 41.89594 2.76086 475 ft 6 kts 32°
2026-04-27 13:28 41.89644 2.76106 475 ft 8 kts 13°
2026-04-27 13:29 41.89707 2.76129 475 ft 10 kts 16°
2026-04-27 13:29 41.89783 2.76159 475 ft 12 kts 17°
2026-04-27 13:29 41.89870 2.76193 475 ft 12 kts 16°
2026-04-27 13:29 41.89900 2.76250 475 ft 7 kts 101°
2026-04-27 13:30 41.89884 2.76326 475 ft 9 kts 107°
2026-04-27 13:30 41.89831 2.76381 475 ft 11 kts 188°
2026-04-27 13:30 41.89749 2.76350 475 ft 13 kts 196°
2026-04-27 13:30 41.89695 2.76335 475 ft 5 kts 161°
2026-04-27 13:31 41.89685 2.76352 475 ft 3 kts 111°
2026-04-27 13:31 41.89677 2.76394 475 ft 1 kts 105°
2026-04-27 13:31 41.89676 2.76396 475 ft 0 kts 106°